Other Surface Observations
Issued by NWS

Home | Current Version | Previous Version | Text Only | Print | Product List | Glossary On
Versions: 1 2 3 4 5 6 7 8 9 10 11 12 13 14 15 16 17 18 19 20 21 22 23 24 25 26 27 28 29 30 31 32 33 34 35 36 37 38 39 40 41 42 43 44 45 46 47 48 49 50
000
SXUS52 KTAE 010918
OSOTAE
OSOTAE
North Florida/South Alabama/Southwest Georgia Weather Roundup
National Weather Service Tallahassee Florida
400 AM EST SUN MAR 01 2015

Note: "fair" indicates few or no clouds below 12,000 feet with no
significant weather and/or obstructions to visibility.

!FLZ017-115-028-034-025-011000
...North Florida...

CITY           SKY/WX    TMP DP  RH WIND       PRES   REMARKS
TALLAHASSEE    CLOUDY    49  45  86 NE8       30.39F
APALACHICOLA   CLOUDY    52  48  86 NE12      30.35F
PERRY          CLOUDY    47  47  97 NE6       30.39F WCI  45
CROSS CITY       N/A     50  49  96 NE7       30.36F
JACKSONVILLE   LGT RAIN  50  50 100 N8        30.39F FOG
$$

!FLZ112-006-005-002-011-011000
...Florida Panhandle...

CITY           SKY/WX    TMP DP  RH WIND       PRES   REMARKS
MARIANNA       CLOUDY    46  46 100 E10       30.39F FOG     WCI  41
BONIFAY        CLOUDY    46  45  96 NE7       30.40F FOG     WCI  42
PANAMA CITY NW CLOUDY    48  47  96 NE8       30.36F FOG     WCI  44
TYNDALL AFB    CLOUDY    49  48  94 NE8       30.35
TYND DRONE APT CLOUDY    49  49  99 NE14      30.35  WCI  44
DE FUNIAK SPR  FOG       46  46 100 NE7       30.39S VSB 1   WCI  42
EGLIN AFB      CLOUDY    49  47  94 NE8       30.36S
DESTIN         CLOUDY    50  48  93 VRB6      30.38R
HURLBURT       CLOUDY    49  46  88 NE6       30.36S
CRESTVIEW      CLOUDY    47  47 100 E5        30.40S FOG     WCI  45
PENSACOLA      CLOUDY    49  47  93 E7        30.36F FOG
$$

!ALZ063-066-011000
...South Alabama...

CITY           SKY/WX    TMP DP  RH WIND       PRES   REMARKS
DOTHAN         CLOUDY    45  44  97 E13       30.43F FOG     WCI  39
OZARK CAIRNS   CLOUDY    46  44  93 E10       30.39F FOG     WCI  40
FT RUCKER HELI CLOUDY    46  44  93 VRB5      30.40S FOG     WCI  44
RUCKER HELI 3  CLOUDY    45  45 100 E9        30.41S FOG     WCI  40
RUCKER HELI 2  CLOUDY    45  44  97 NE8       30.40F FOG     WCI  41
FLORALA APT    CLOUDY    47  45  93 E7        30.40S FOG     WCI  44
ANDALUSIA      CLOUDY    49  45  86 SE12      30.39F FOG     WCI  44
TROY           CLOUDY    46  44  93 E8        30.41F WCI  42
EUFALA         CLOUDY    46  43  89 NE7       30.43F WCI  42
MOBILE         CLOUDY    49  49 100 E9        30.35F FOG     WCI  45
$$

!GAZ120>161-011000
...Southwest and South Central Georgia...

CITY           SKY/WX    TMP DP  RH WIND       PRES   REMARKS
THOMASVILLE    CLOUDY    46 N/A N/A NE8       30.42F FOG     WCI  42
BAINBRIDGE     CLOUDY    46  46 100 NE10      30.42S FOG     WCI  41
MOODY AFB      MIX PCPN  45  43  93 NE6       30.41F WCI  41
VALDOSTA       CLOUDY    45  44  97 NE7       30.42F WCI  41
MOULTRIE       CLOUDY    45  45 100 NE5       30.42F FOG     WCI  42
BLAKELY        CLOUDY    46  46 100 E7        30.43F FOG     WCI  43
ALBANY         CLOUDY    45  43  93 NE9       30.46S FOG     WCI  40
TIFTON         CLOUDY   N/A N/A N/A NE7       30.44S FOG
FITZGERALD     CLOUDY    45  42  91 NE7       30.47F WCI  41
CORDELE        DRIZZLE   44  42  94 NE12      30.47F WCI  38
AMERICUS       CLOUDY    41  41 100 NE13      30.47F FOG     WCI  34
HOMERVILLE     CLOUDY    46  45  93 NE5       30.43F WCI  44
$$

!GMZ750-755-770-775-011000
...Coastal and Buoy Obs...

STATION/POSITION TIME  TEMP    WIND        PRES    VSBY  WAVE
                       AIR SEA DIR/SP/G                  HT/PER
                 (UTC) (F)     (DEG/KT/KT) (MB)    (MI)  (FT/S)
KEATON BEACH     0900   48      50/ 14/ 19 1027.7F
CEDAR KEY        0854   53      50/ 11/ 13 1027.4F
C TOWER          0900   53      60/ 23/ 24 1026.7F
APALACHICOLA BUO 0900   60 65   60/ 17/ 19 1026.0R         6/ 6
PANAMA CITY BUOY 0816   62 67   80/ 17/ 21 1026.3          7/ 7
MOBILE BUOY      0755   65 71  100/ 17/ 21 1026.2F         6/ 7
ORANGE BCH AL BU 0900   56 61   70/ 17/ 19 1026.8S         6/ 7
$$



USA.gov is the U.S. government's official web portal to all federal, state and local government web resources and services.